Zurück zum Katalog

KUIPER-00421

AktivKommunikationLEO
NORAD 68933·PAYLOAD·🇺🇸 United States

Gestartet Apr 30, 2026 von Guiana Space Centre

Loading…

Nächste Überflüge (nächste 24 Stunden)

TLE

AktuellSource: CelesTrak SupGP

Epoche: Sep 14, 2026, 23:00 UTC

1 68933C 26098Q   26257.95879630  .00002491  00000+0  32612-3 0  2572
2 68933  51.9027  13.6454 0000519  98.4675 258.1746 14.79925121    17

Verfolge KUIPER-00421 in Echtzeit mit AllMySat

Download on the App Store